EHI
1 1 1 1 1 1 1 1 1 1 1 3 4 4 4 7 8 7 7 7 6 5 4 5 6 6 4 2 2 3 4 4 3 3 2 2 2 2 1 0 0 0 0
3 3 3 3 2 3 3 3 3 3 4 6 7 8 8 8 9 8 6 6 6 5 4 5 5 5 3 2 1 1 1 1 1 2 1 1 1 1 0 0 0 0 0
4 5 5 4 3 3 5 6 5 5 7 8 9 10 9 9 8 7 5 4 5 5 4 4 4 4 3 3 2 1 1 0 0 0 1 1 1 0 0 0 0 0 0
5 6 6 5 4 3 5 6 5 5 7 7 8 8 7 6 5 4 4 3 4 5 4 3 3 3 3 3 3 3 2 1 0 0 0 1 1 0 0 0 0 0 0
7 7 7 6 5 3 4 4 4 4 6 6 6 6 6 4 3 3 3 3 4 4 3 2 3 3 3 3 3 3 3 2 1 0 0 0 0 0 0 0 0 0 0
10 8 7 7 6 4 3 3 3 4 6 7 7 7 6 4 3 3 3 3 3 2 1 1 1 2 2 3 3 3 3 3 2 1 1 0 0 0 0 0 0 0 0
12 10 8 9 9 7 6 5 3 4 6 8 8 7 6 5 4 3 3 3 2 1 0 0 0 1 1 1 2 3 3 3 3 3 2 1 0 0 0 0 0 0 0
11 11 12 11 11 11 10 9 7 6 6 7 7 7 6 5 4 3 3 2 2 1 0 0 0 1 1 1 1 1 2 3 3 3 3 2 1 0 0 0 0 0 0
12 13 15 14 12 12 13 13 12 10 9 8 8 7 7 5 3 2 1 1 1 0 0 0 0 0 1 1 0 0 1 1 2 3 3 3 2 1 0 0 0 0 0
14 15 18 18 17 15 14 13 12 12 11 9 9 9 8 6 3 1 0 1 1 0 0 0 0 0 0 1 1 0 0 0 1 2 2 2 2 2 1 0 0 0 0
16 17 20 22 21 18 15 12 11 12 12 11 11 10 9 7 5 2 1 2 2 1 1 0 1 1 1 1 1 0 0 0 0 1 1 1 1 1 1 0 0 0 0
18 20 23 24 23 20 15 12 11 12 13 13 13 11 9 8 7 4 2 3 3 3 2 1 1 2 2 1 1 0 0 0 0 0 0 0 0 0 0 0 0 0 0
19 23 24 24 22 19 14 11 10 12 13 14 15 14 11 9 8 6 4 3 3 3 3 2 1 1 1 1 0 0 0 0 0 0 0 0 0 0 0 0 0 0 0
19 23 24 22 20 16 13 11 10 12 12 13 15 15 13 10 8 7 5 4 4 3 3 3 1 0 0 0 0 0 0 0 0 0 0 0 0 0 0 0 0 0 0
21 22 21 18 16 14 11 11 11 11 11 11 13 15 14 11 10 9 7 6 6 4 4 4 3 1 0 0 0 0 0 0 0 0 0 0 0 0 0 0 0 0 0
23 21 18 16 15 12 10 9 10 10 10 10 11 12 12 12 12 12 11 9 9 6 4 4 4 1 0 0 0 0 0 0 0 0 0 0 0 0 0 0 0 0 0
24 21 17 16 15 11 7 7 8 8 8 8 8 9 10 10 11 13 12 11 10 8 5 4 3 1 1 0 0 0 0 0 0 0 0 0 0 0 0 0 0 0 0
22 20 17 16 14 9 6 6 7 8 6 6 7 8 8 8 10 12 13 12 10 9 6 4 3 1 1 0 0 0 0 0 0 0 0 0 0 0 0 0 0 0 0
19 18 16 15 11 6 4 5 5 5 5 5 6 8 8 8 10 11 12 11 10 9 7 5 4 2 1 1 1 1 1 0 0 0 0 0 0 0 0 0 0 0 0
17 16 15 13 9 5 3 3 2 2 3 4 6 8 9 9 9 10 10 10 9 8 7 5 3 3 3 3 3 2 1 1 0 0 0 0 0 0 0 0 0 0 0
16 15 13 11 7 3 1 1 1 1 2 3 5 7 7 5 6 6 7 7 7 7 6 5 3 2 3 5 5 3 2 2 1 1 1 0 0 0 0 0 0 0 0
14 13 10 7 3 1 0 0 0 1 2 2 4 5 4 2 2 2 2 2 3 3 4 4 2 1 2 4 5 4 3 3 2 2 2 1 0 0 0 0 0 0 0
12 10 7 4 1 0 0 0 0 1 1 2 4 4 3 1 1 1 1 0 1 1 2 2 1 0 1 2 3 4 4 3 3 3 2 1 0 0 0 0 0 0 0
10 9 7 4 2 1 0 0 0 0 1 3 5 5 4 3 1 2 2 2 2 2 1 0 0 0 1 1 2 2 3 3 2 2 2 1 0 0 0 0 0 0 0
9 8 8 7 4 2 1 0 0 0 1 3 4 4 4 3 1 1 2 3 3 3 1 0 0 0 0 0 0 1 1 1 1 1 1 1 0 0 0 0 0 0 0
8 8 9 8 5 2 1 0 0 0 1 3 4 3 2 1 1 1 2 3 3 3 2 1 0 0 0 0 0 0 0 0 0 0 1 1 1 0 0 0 0 0 0
Wind_Speed
1 2 2 2 2 1 1 1 2 2 2 3 2 3 2 2 1 1 4 6 4 3 3 3 4 4 4 4 5 5 5 5 5 5 6 6 6 6 7 8 9 9 10
2 1 1 2 2 2 2 2 3 2 2 2 3 2 2 2 2 1 2 5 5 4 3 3 2 3 4 4 4 4 4 5 5 5 4 5 5 6 6 7 8 9 9
1 1 1 1 2 2 1 1 2 2 2 2 3 3 2 2 2 1 1 1 4 6 4 3 3 3 3 3 3 3 3 3 4 5 5 4 4 5 5 7 7 8 8
0 0 1 2 2 1 1 1 1 1 2 2 2 2 2 2 2 1 1 1 1 2 5 5 3 3 3 3 3 4 4 4 4 4 5 5 4 4 4 5 6 8 8
0 0 1 1 1 1 1 1 2 1 1 1 2 2 1 2 1 1 1 1 1 1 2 6 6 4 3 2 3 3 3 3 3 4 4 4 4 3 3 4 4 6 7
0 1 1 0 1 1 1 1 1 1 1 0 1 2 2 1 1 1 0 1 1 2 1 2 3 5 5 3 1 2 2 4 4 4 4 4 4 4 4 4 4 5 5
1 1 1 1 1 0 1 0 0 1 1 1 1 1 2 2 1 1 0 0 1 1 1 1 1 0 3 6 3 1 2 3 4 4 4 4 3 4 4 4 4 4 5
2 2 1 1 1 1 1 1 1 1 0 1 1 1 1 3 2 1 1 1 0 1 1 2 1 0 1 1 4 3 1 2 3 4 4 4 4 4 4 4 4 4 5
2 1 2 2 1 2 1 1 1 2 1 1 1 2 1 1 1 2 1 1 1 0 0 2 2 1 0 1 2 3 2 1 2 3 4 4 4 4 4 4 4 4 4
2 2 2 2 2 2 1 2 1 1 2 1 1 1 1 1 1 1 2 2 1 1 0 0 1 1 1 1 2 4 3 1 1 2 3 3 4 4 4 5 5 4 5
2 2 2 2 2 2 1 2 1 2 2 2 1 1 1 1 2 2 1 1 2 1 1 1 1 1 1 1 1 4 4 2 1 1 2 3 3 4 4 4 4 5 5
2 2 2 2 2 2 1 2 2 2 2 2 2 2 2 2 2 1 1 1 1 1 1 0 0 1 1 1 2 5 4 2 1 1 2 2 3 3 3 4 4 5 5
2 2 2 2 2 2 2 2 2 2 2 3 3 3 2 2 1 2 2 1 1 1 2 1 1 1 1 1 2 4 4 2 2 2 2 1 2 2 2 3 4 4 4
1 1 2 2 2 2 2 2 2 2 2 3 3 3 3 3 2 2 2 2 2 1 2 1 1 1 0 0 3 2 3 4 2 2 1 1 1 1 1 2 3 3 3
1 1 2 2 2 2 2 3 2 2 2 3 3 3 4 2 3 3 3 3 3 2 1 2 1 1 1 1 2 1 1 5 3 2 2 1 1 0 0 0 1 2 3
1 2 2 2 2 2 2 3 3 2 3 3 2 3 3 3 2 3 3 3 3 3 2 0 1 1 0 0 3 1 1 6 4 3 2 1 1 1 0 0 1 2 2
2 2 2 2 2 2 2 2 3 2 3 3 3 3 3 3 3 3 2 2 2 2 2 1 1 2 1 1 1 1 1 2 4 5 4 2 2 1 0 0 1 2 2
2 2 2 2 2 2 2 2 3 2 3 3 3 3 3 2 2 3 2 2 2 2 2 2 1 1 2 1 1 2 1 1 1 6 5 4 2 2 1 1 2 2 2
2 2 2 2 2 2 2 2 2 2 2 2 2 2 2 2 2 2 2 2 2 2 2 2 2 1 1 1 1 2 1 1 2 4 7 6 4 3 2 2 3 3 3
2 2 2 2 2 2 2 2 2 2 2 2 2 2 2 2 2 2 2 3 2 2 2 3 2 2 1 2 2 2 1 1 2 2 1 2 4 5 4 3 3 2 3
3 2 2 2 2 2 1 2 2 3 2 2 2 2 1 1 2 2 2 1 2 3 3 3 2 2 1 1 2 2 2 2 2 1 1 2 3 3 3 4 4 2 2
2 2 2 2 2 0 3 3 3 2 2 2 2 1 2 2 2 3 2 2 3 3 3 3 2 2 2 2 2 2 2 2 2 1 2 2 2 1 1 1 3 3 2
2 1 2 2 1 1 3 0 2 3 2 2 1 2 2 1 2 2 3 5 3 3 4 4 3 3 2 2 2 2 1 2 2 2 2 2 1 2 2 1 5 3 2
2 2 2 1 1 2 2 1 2 3 2 1 1 1 1 1 2 2 2 1 2 2 3 3 3 3 3 2 2 3 2 3 3 2 2 3 2 2 2 1 5 5 4
2 2 2 2 1 1 2 2 3 2 1 1 1 0 0 1 2 3 2 2 2 1 2 2 1 1 1 2 3 3 3 3 3 2 2 3 2 2 3 2 4 8 6
2 2 1 1 1 1 2 2 4 2 2 2 2 2 2 1 2 3 2 2 2 1 1 2 2 3 3 3 4 4 3 3 2 1 1 3 3 2 3 2 1 3 4
Wind_Direction
31 37 36 16 10 31 41 9 26 65 107 121 118 115 112 93 97 115 123 129 140 161 175 185 187 188 189 186 179 173 178 185 190 198 203 202 201 205 211 209 208 209 207
42 29 54 32 26 21 29 20 44 62 76 82 90 101 103 102 97 100 125 138 144 153 151 157 159 173 184 184 182 184 189 195 192 195 203 208 210 216 217 218 216 212 210
58 37 58 45 37 33 53 48 62 64 90 97 94 90 91 80 82 80 104 135 142 143 135 131 143 155 164 170 176 180 188 192 192 195 202 212 216 220 224 231 225 215 211
48 334 52 49 31 20 47 76 68 71 76 80 79 76 92 106 101 107 124 123 110 137 142 137 142 153 169 185 194 198 199 197 199 204 207 211 215 219 226 233 223 210 207
101 330 45 39 339 14 20 31 66 53 88 82 100 96 89 95 115 127 120 138 137 170 153 140 151 152 162 180 202 203 199 200 207 208 203 202 204 205 211 213 204 198 199
224 287 143 67 316 24 31 44 69 41 58 102 85 87 88 93 114 100 172 123 162 182 186 146 169 158 156 161 174 207 211 204 198 196 193 192 195 197 197 193 186 183 187
220 247 273 150 274 43 357 104 132 133 125 143 161 145 140 135 116 137 149 130 140 149 138 152 196 170 157 163 164 181 204 191 189 191 187 186 189 182 176 176 175 168 173
231 212 237 234 224 198 209 211 247 246 156 196 274 257 186 155 163 140 142 154 141 137 139 141 101 95 334 147 122 140 168 189 193 188 182 177 177 180 181 184 182 183 186
211 235 223 253 256 244 199 221 227 243 243 219 293 304 298 22 141 141 147 140 137 69 132 107 112 112 93 50 110 123 110 134 197 180 162 158 163 172 175 181 186 188 194
220 218 226 237 260 262 234 241 219 250 250 241 185 267 313 340 284 175 164 145 154 168 289 319 114 121 95 97 81 70 84 76 106 163 170 174 172 176 181 185 190 192 200
217 227 221 234 246 255 258 284 283 269 258 270 261 203 193 209 245 261 205 170 171 158 155 192 128 107 89 53 84 85 90 85 105 164 185 182 187 196 195 193 199 202 206
207 215 224 235 244 257 246 254 258 237 274 281 276 252 233 225 218 228 236 220 184 145 128 121 172 147 144 124 80 87 94 88 142 168 176 179 195 207 210 206 209 213 214
222 207 234 231 249 248 252 263 252 280 267 259 261 265 260 257 259 247 238 254 251 193 156 186 173 193 183 158 108 116 108 106 130 160 178 183 199 217 220 219 217 221 222
267 233 217 220 241 248 247 246 254 251 259 263 266 269 263 255 251 233 236 240 244 212 172 169 199 191 222 117 82 187 119 110 114 134 151 159 175 200 229 237 230 226 219
248 229 231 226 231 240 251 249 256 265 262 261 261 245 254 250 246 245 242 244 253 251 217 164 185 169 186 126 105 149 103 107 118 128 128 135 151 155 246 266 255 234 225
236 224 225 231 236 240 241 250 251 258 259 259 270 281 275 268 260 247 238 247 252 258 260 153 135 105 73 217 136 185 143 131 128 133 131 140 140 143 150 269 270 260 247
215 222 221 225 230 235 242 251 265 262 261 261 257 253 260 279 275 261 248 246 242 234 244 256 127 124 166 245 152 223 201 185 141 137 136 142 150 145 143 301 287 270 264
217 221 226 224 228 227 238 251 257 261 264 265 264 264 267 259 257 263 254 243 245 238 240 236 223 197 179 195 202 248 238 198 154 135 151 158 164 175 203 238 258 269 274
201 211 217 226 236 235 239 248 260 269 269 271 272 266 262 260 261 258 245 237 236 231 226 234 229 204 208 193 222 223 210 248 245 162 168 174 178 178 198 232 247 253 260
196 205 212 226 232 239 248 247 250 263 263 266 266 263 262 264 268 258 237 230 232 231 221 228 226 206 196 197 222 223 205 213 252 240 181 190 176 187 203 218 229 236 245
195 197 209 215 221 229 254 284 246 231 238 244 243 258 279 324 353 306 293 268 238 232 227 223 220 211 207 220 238 244 243 240 238 251 234 224 195 208 198 202 202 204 221
190 193 202 205 220 238 63 6 303 247 237 239 242 255 225 197 184 209 249 297 299 265 256 252 248 240 234 241 261 262 260 262 262 249 264 255 232 242 255 266 116 151 189
175 188 196 204 201 101 87 29 306 282 245 237 241 263 283 16 235 230 192 201 226 263 276 273 271 276 263 249 257 257 266 274 280 270 264 268 261 261 262 106 129 150 178
180 193 203 198 192 121 119 159 265 246 239 230 228 256 286 321 7 315 268 223 227 224 240 240 264 277 287 291 259 250 247 247 245 226 245 266 265 275 287 189 151 169 182
191 205 204 207 203 156 153 190 256 230 200 179 174 69 331 80 21 320 264 239 232 214 175 182 230 256 307 291 285 266 245 244 245 227 228 263 260 270 274 246 169 171 183
208 215 199 213 220 211 156 216 259 230 189 195 179 162 97 46 346 315 264 253 252 272 275 183 192 207 216 213 227 257 271 266 269 254 218 265 263 268 269 263 236 187 189